Tracking 18874 objects as of 17-Dec-2017
HD Live streaming from Space Station
objects crossing your sky now

SILKROAD 1

Track SILKROAD 1 now!
10-day predictions


NORAD ID: 42903
Int'l Code: 2017-021F
Perigee: 377.0 km
Apogee: 387.4 km
Inclination: 42.8 °
Period: 92.0 minutes
Semi major axis: 6753 km
RCS: Unknown
Launch date: April 20, 2017
Source: People's Republic of China (PRC)
Launch site: Wenchang Satellite Launch Center (WSC)
aabbcc
Your satellite tracking list
Your tracking list is empty




NASA's NSSDC Master Catalog

Two Line Element Set (TLE):
1 42903U 17021F   17351.20506340  .00017375  00000-0  17983-3 0  9990
2 42903  42.7808 344.2371 0007698 103.6259 319.0227 15.64371226 21362
Source of the keplerian elements: AFSPC